Regional Weather Roundup
Issued by NWS

Home | Current Version | Previous Version | Graphics & Text | Print | Product List | Glossary On
Versions: 1 2 3 4 5 6 7 8 9 10 11 12 13 14 15 16 17 18 19 20 21 22 23 24 25 26 27 28 29 30 31 32 33 34 35 36 37 38 39 40 41 42 43 44 45 46 47 48 49 50
961
ASUS45 KSLC 201310
RWRUT

UTAH REGIONAL WEATHER ROUNDUP
NATIONAL WEATHER SERVICE SALT LAKE CITY UT
700 AM MDT SUN MAY 20 2018

UTZ001>011-023>025-201400-

NORTHERN UTAH

CITY           SKY/WX    TMP DP  RH WIND       PRES   REMARKS
BRIGHAM CITY   CLEAR     54  41  61 N7        29.98R
HILL AFB       CLEAR     54  40  59 NE17G26   29.98R
LOGAN          CLEAR     46  42  86 N5        30.00R
OGDEN          CLEAR     57  40  52 S5        29.97R
SALT LAKE CITY PTCLDY    58  43  57 S8        29.96R
TOOELE VALLEY  CLEAR     52  43  71 S9        29.97R
WENDOVER       CLEAR     56  43  61 CALM      29.95R
HEBER CITY       N/A     41  37  87 CALM      30.06R
WEST JORDAN    CLEAR     52  44  74 CALM      29.99R

$$

UTZ011>015-024>027-201400-

CENTRAL/NORTHEAST UTAH

CITY           SKY/WX    TMP DP  RH WIND       PRES   REMARKS
PROVO AIRPORT  PTCLDY    55  45  68 SE8       29.99
MOAB/CANYONLAN PTCLDY    57  36  45 CALM      29.99R
DELTA          CLEAR     50  43  76 NE5       29.97S
PRICE          PTCLDY    50  40  68 S5        30.08R
RICHFIELD      CLEAR     45  41  87 CALM      30.02R
ROOSEVELT      CLEAR     45  37  76 CALM      30.10S
VERNAL         SUNNY     49  37  63 W5        30.09R

$$

UTZ013>016-019>022-027-201400-

SOUTHERN UTAH

CITY           SKY/WX    TMP DP  RH WIND       PRES   REMARKS
BRYCE CANYON   CLEAR     36  34  92 W10       30.13R WCI  28
CEDAR CITY     CLEAR     45  37  73 SE3       29.99R
MILFORD        CLEAR     42  38  85 SW5       29.98R
ST GEORGE      SUNNY     63  34  33 SE6       29.88R
HANKSVILLE     MOCLDY    59  37  44 S6        30.00R
KANAB          CLEAR     55  36  47 N9        30.02R
BLANDING         N/A     55  27  35 NE9       30.10R

$$

REGIONAL REPORTS     COLORADO/ARIZONA

CITY           SKY/WX    TMP DP  RH WIND       PRES   REMARKS
CRAIG, CO      SUNNY     39  37  92 CALM      30.14R
GRAND JUNCTION SUNNY     54  37  52 E9        30.03R
RIFLE, CO      SUNNY     44  39  82 CALM      30.11R
MONTROSE, CO   SUNNY     45  32  60 S6        30.11R
CORTEZ, CO     MOCLDY    50  28  42 VRB5      30.07R
COLORADO CITY    N/A     45  32  61 S3        30.00R
PAGE, AZ       CLEAR     65  37  35 CALM      29.93R
GRAND CANYON   CLEAR     37  18  46 NE3       30.08R
KINGMAN, AZ    CLEAR     58  26  29 SE15      29.91R
FLAGSTAFF, AZ  CLEAR     36  18  48 CALM      30.10R

$$

REGIONAL REPORTS    NEVADA/IDAHO/WYOMING

CITY           SKY/WX    TMP DP  RH WIND       PRES   REMARKS
LAS VEGAS, NV  PTCLDY    70  39  32 SW3       29.81R
ELY, NY        CLEAR     36  34  92 S8        30.04R WCI  30
ELKO, NV       CLOUDY    46  44  93 CALM      29.99R
POCATELLO, ID  PTCLDY    44  43  96 CALM      29.99S
BURLEY, ID     MOCLDY    54  46  74 E10       29.94R
FORT BRIDGER,    N/A     40  40 100 NE5       30.18S
EVANSTON, WY   CLEAR     41  39  93 E14       30.13R
ROCK SPRINGS,  CLOUDY    39  37  92 E9        30.17R WCI  33
KEMMERER, WY   PTCLDY    41  36  81 NE12      30.16S

$$




USA.gov is the U.S. government's official web portal to all federal, state and local government web resources and services.